Location: Cactus School
(34.5700°N, 118.0931°W)
Time: 00:22:20
(UTC-08:00)

A-11 Canister half - Pass Details

Date: 28 November 2019
Orbit: 1515 x 1685 km, 47.2° (Epoch: 12 December)

Event Time Altitude Azimuth Distance (km) Brightness Sun altitude
Rises 20:42:49 0° 304° (NW) 4,932 12.2 -49.0°
Reaches altitude 10° 20:46:01 10° 306° (NW) 3,948 11.5 -49.7°
Enters shadow 20:50:56 34° 313° (NW) 2,537 10.2 -50.7°
